Year,Month,Day,Hour,Minute,Value (Times are PST for windspeed in km/hr)
2018,08,31,00,00,2.60
2018,08,31,00,01,2.30
2018,08,31,00,02,4.60
2018,08,31,00,03,5.20
2018,08,31,00,04,9.70
2018,08,31,00,05,7.70
2018,08,31,00,06,5.10
2018,08,31,00,07,3.10
2018,08,31,00,08,5.30
2018,08,31,00,09,3.90
2018,08,31,00,10,7.70
2018,08,31,00,11,6.70
2018,08,31,00,12,3.50
2018,08,31,00,13,0.60
2018,08,31,00,14,4.90
2018,08,31,00,15,5.20
2018,08,31,00,16,5.30
2018,08,31,00,17,7.60
2018,08,31,00,18,9.30
2018,08,31,00,19,7.50
2018,08,31,00,20,6.10
2018,08,31,00,21,7.10
2018,08,31,00,22,5.10
2018,08,31,00,23,13.10
2018,08,31,00,24,8.00
2018,08,31,00,25,12.60
2018,08,31,00,26,8.20
2018,08,31,00,27,5.70
2018,08,31,00,28,10.80
2018,08,31,00,29,8.00
2018,08,31,00,30,5.20
2018,08,31,00,31,5.10
2018,08,31,00,32,14.20
2018,08,31,00,33,9.20
2018,08,31,00,34,11.10
2018,08,31,00,35,6.30
2018,08,31,00,36,9.10
2018,08,31,00,37,6.40
2018,08,31,00,38,6.10
2018,08,31,00,39,5.60
2018,08,31,00,40,6.10
2018,08,31,00,41,8.50
2018,08,31,00,42,6.90
2018,08,31,00,43,10.60
2018,08,31,00,44,6.80
2018,08,31,00,45,6.80
2018,08,31,00,46,6.50
2018,08,31,00,47,11.30
2018,08,31,00,48,6.40
2018,08,31,00,49,7.60
2018,08,31,00,50,13.40
2018,08,31,00,51,8.70
2018,08,31,00,52,9.30
2018,08,31,00,53,5.00
2018,08,31,00,54,7.50
2018,08,31,00,55,4.40
2018,08,31,00,56,3.30
2018,08,31,00,57,5.70
2018,08,31,00,58,6.00
2018,08,31,00,59,7.60
2018,08,31,01,00,7.20
2018,08,31,01,01,2.40
2018,08,31,01,02,5.30
2018,08,31,01,03,4.10
2018,08,31,01,04,3.40
2018,08,31,01,05,4.30
2018,08,31,01,06,4.50
2018,08,31,01,07,8.40
2018,08,31,01,08,5.50
2018,08,31,01,09,2.40
2018,08,31,01,10,7.00
2018,08,31,01,11,5.00
2018,08,31,01,12,1.50
2018,08,31,01,13,6.60
2018,08,31,01,14,3.80
2018,08,31,01,15,4.00
2018,08,31,01,16,4.40
2018,08,31,01,17,6.00
2018,08,31,01,18,5.60
2018,08,31,01,19,4.50
2018,08,31,01,20,6.70
2018,08,31,01,21,6.90
2018,08,31,01,22,9.70
2018,08,31,01,23,4.30
2018,08,31,01,24,5.10
2018,08,31,01,25,8.50
2018,08,31,01,26,3.90
2018,08,31,01,27,4.40
2018,08,31,01,28,5.00
2018,08,31,01,29,6.40
2018,08,31,01,30,5.80
2018,08,31,01,31,7.50
2018,08,31,01,32,5.60
2018,08,31,01,33,6.50
2018,08,31,01,34,4.10
2018,08,31,01,35,6.00
2018,08,31,01,36,5.70
2018,08,31,01,37,2.30
2018,08,31,01,38,1.90
2018,08,31,01,39,6.30
2018,08,31,01,40,3.70
2018,08,31,01,41,6.50
2018,08,31,01,42,1.70
2018,08,31,01,43,2.30
2018,08,31,01,44,2.40
2018,08,31,01,45,2.00
2018,08,31,01,46,0.90
2018,08,31,01,47,1.20
2018,08,31,01,48,6.20
2018,08,31,01,49,3.10
2018,08,31,01,50,5.20
2018,08,31,01,51,3.50
2018,08,31,01,52,5.70
2018,08,31,01,53,7.10
2018,08,31,01,54,0.80
2018,08,31,01,55,3.70
2018,08,31,01,56,5.90
2018,08,31,01,57,4.80
2018,08,31,01,58,1.90
2018,08,31,01,59,1.10
2018,08,31,02,00,0.80
2018,08,31,02,01,1.60
2018,08,31,02,02,1.50
2018,08,31,02,03,1.60
2018,08,31,02,04,2.50
2018,08,31,02,05,0.20
2018,08,31,02,06,0.00
2018,08,31,02,07,0.90
2018,08,31,02,08,2.40
2018,08,31,02,09,2.30
2018,08,31,02,10,0.60
2018,08,31,02,11,2.30
2018,08,31,02,12,1.60
2018,08,31,02,13,3.40
2018,08,31,02,14,3.60
2018,08,31,02,15,0.30
2018,08,31,02,16,3.50
2018,08,31,02,17,3.70
2018,08,31,02,18,1.90
2018,08,31,02,19,6.80
2018,08,31,02,20,4.10
2018,08,31,02,21,3.90
2018,08,31,02,22,4.20
2018,08,31,02,23,4.80
2018,08,31,02,24,2.20
2018,08,31,02,25,3.50
2018,08,31,02,26,3.80
2018,08,31,02,27,4.70
2018,08,31,02,28,9.60
2018,08,31,02,29,6.40
2018,08,31,02,30,6.80
2018,08,31,02,31,7.60
2018,08,31,02,32,5.80
2018,08,31,02,33,4.60
2018,08,31,02,34,7.90
2018,08,31,02,35,8.70
2018,08,31,02,36,5.40
2018,08,31,02,37,7.40
2018,08,31,02,38,6.30
2018,08,31,02,39,6.40
2018,08,31,02,40,5.50
2018,08,31,02,41,7.20
2018,08,31,02,42,6.70
2018,08,31,02,43,5.70
2018,08,31,02,44,6.60
2018,08,31,02,45,9.30
2018,08,31,02,46,6.40
2018,08,31,02,47,7.00
2018,08,31,02,48,5.70
2018,08,31,02,49,5.30
2018,08,31,02,50,6.20
2018,08,31,02,51,5.80
2018,08,31,02,52,8.90
2018,08,31,02,53,8.30
2018,08,31,02,54,7.50
2018,08,31,02,55,6.40
2018,08,31,02,56,8.40
2018,08,31,02,57,6.10
2018,08,31,02,58,6.40
2018,08,31,02,59,6.80
2018,08,31,03,00,5.70
2018,08,31,03,01,5.70
2018,08,31,03,02,8.70
2018,08,31,03,03,5.30
2018,08,31,03,04,5.40
2018,08,31,03,05,6.60
2018,08,31,03,06,8.10
2018,08,31,03,07,5.60
2018,08,31,03,08,4.10
2018,08,31,03,09,3.90
2018,08,31,03,10,4.70
2018,08,31,03,11,3.90
2018,08,31,03,12,3.30
2018,08,31,03,13,4.30
2018,08,31,03,14,5.00
2018,08,31,03,15,5.00
2018,08,31,03,16,5.40
2018,08,31,03,17,5.60
2018,08,31,03,18,5.00
2018,08,31,03,19,4.40
2018,08,31,03,20,9.50
2018,08,31,03,21,5.50
2018,08,31,03,22,6.10
2018,08,31,03,23,5.70
2018,08,31,03,24,9.50
2018,08,31,03,25,8.10
2018,08,31,03,26,7.10
2018,08,31,03,27,8.30
2018,08,31,03,28,12.70
2018,08,31,03,29,7.50
2018,08,31,03,30,8.80
2018,08,31,03,31,8.70
2018,08,31,03,32,10.50
2018,08,31,03,33,10.60
2018,08,31,03,34,9.20
2018,08,31,03,35,7.50
2018,08,31,03,36,3.30
2018,08,31,03,37,5.00
2018,08,31,03,38,2.40
2018,08,31,03,39,5.40
2018,08,31,03,40,6.20
2018,08,31,03,41,5.10
2018,08,31,03,42,5.50
2018,08,31,03,43,8.00
2018,08,31,03,44,5.70
2018,08,31,03,45,8.70
2018,08,31,03,46,7.80
2018,08,31,03,47,5.10
2018,08,31,03,48,8.30
2018,08,31,03,49,9.30
2018,08,31,03,50,7.20
2018,08,31,03,51,5.40
2018,08,31,03,52,5.40
2018,08,31,03,53,3.10
2018,08,31,03,54,6.60
2018,08,31,03,55,7.70
2018,08,31,03,56,5.20
2018,08,31,03,57,4.60
2018,08,31,03,58,7.10
2018,08,31,03,59,6.70
2018,08,31,04,00,6.50
2018,08,31,04,01,11.00
2018,08,31,04,02,8.60
2018,08,31,04,03,11.30
2018,08,31,04,04,7.10
2018,08,31,04,05,7.10
2018,08,31,04,06,6.00
2018,08,31,04,07,7.90
2018,08,31,04,08,5.90
2018,08,31,04,09,5.20
2018,08,31,04,10,5.60
2018,08,31,04,11,12.70
2018,08,31,04,12,4.10
2018,08,31,04,13,4.20
2018,08,31,04,14,6.10
2018,08,31,04,15,8.20
2018,08,31,04,16,5.70
2018,08,31,04,17,10.40
2018,08,31,04,18,8.40
2018,08,31,04,19,7.60
2018,08,31,04,20,8.20
2018,08,31,04,21,5.50
2018,08,31,04,22,4.80
2018,08,31,04,23,5.60
2018,08,31,04,24,3.90
2018,08,31,04,25,2.00
2018,08,31,04,26,5.40
2018,08,31,04,27,4.30
2018,08,31,04,28,5.10
2018,08,31,04,29,5.90
2018,08,31,04,30,3.00
2018,08,31,04,31,6.50
2018,08,31,04,32,11.40
2018,08,31,04,33,5.90
2018,08,31,04,34,4.10
2018,08,31,04,35,6.10
2018,08,31,04,36,7.00
2018,08,31,04,37,5.70
2018,08,31,04,38,7.90
2018,08,31,04,39,6.80
2018,08,31,04,40,3.60
2018,08,31,04,41,1.40
2018,08,31,04,42,4.80
2018,08,31,04,43,7.40
2018,08,31,04,44,5.20
2018,08,31,04,45,3.70
2018,08,31,04,46,4.40
2018,08,31,04,47,4.10
2018,08,31,04,48,6.00
2018,08,31,04,49,5.20
2018,08,31,04,50,5.10
2018,08,31,04,51,4.90
2018,08,31,04,52,3.50
2018,08,31,04,53,3.60
2018,08,31,04,54,5.10
2018,08,31,04,55,6.20
2018,08,31,04,56,1.60
2018,08,31,04,57,6.70
2018,08,31,04,58,4.30
2018,08,31,04,59,6.10
2018,08,31,05,00,3.30
2018,08,31,05,01,3.90
2018,08,31,05,02,4.40
2018,08,31,05,03,10.90
2018,08,31,05,04,7.30
2018,08,31,05,05,6.60
2018,08,31,05,06,5.60
2018,08,31,05,07,6.70
2018,08,31,05,08,5.60
2018,08,31,05,09,10.80
2018,08,31,05,10,9.00
2018,08,31,05,11,4.30
2018,08,31,05,12,10.80
2018,08,31,05,13,11.70
2018,08,31,05,14,13.00
2018,08,31,05,15,10.90
2018,08,31,05,16,10.30
2018,08,31,05,17,9.00
2018,08,31,05,18,9.80
2018,08,31,05,19,8.30
2018,08,31,05,20,10.00
2018,08,31,05,21,9.80
2018,08,31,05,22,7.60
2018,08,31,05,23,7.70
2018,08,31,05,24,8.30
2018,08,31,05,25,9.30
2018,08,31,05,26,8.70
2018,08,31,05,27,6.90
2018,08,31,05,28,6.50
2018,08,31,05,29,3.30
2018,08,31,05,30,6.00
2018,08,31,05,31,6.10
2018,08,31,05,32,4.80
2018,08,31,05,33,6.70
2018,08,31,05,34,4.80
2018,08,31,05,35,6.70
2018,08,31,05,36,6.10
2018,08,31,05,37,4.20
2018,08,31,05,38,3.80
2018,08,31,05,39,0.70
2018,08,31,05,40,3.90
2018,08,31,05,41,5.10
2018,08,31,05,42,6.40
2018,08,31,05,43,4.90
2018,08,31,05,44,3.10
2018,08,31,05,45,5.50
2018,08,31,05,46,6.70
2018,08,31,05,47,4.00
2018,08,31,05,48,5.10
2018,08,31,05,49,6.40
2018,08,31,05,50,1.70
2018,08,31,05,51,3.00
2018,08,31,05,52,1.50
2018,08,31,05,53,6.20
2018,08,31,05,54,2.00
2018,08,31,05,55,3.20
2018,08,31,05,56,3.90
2018,08,31,05,57,2.80
2018,08,31,05,58,2.50
2018,08,31,05,59,9.70
2018,08,31,06,00,5.30
2018,08,31,06,01,3.10
2018,08,31,06,02,3.60
2018,08,31,06,03,1.40
2018,08,31,06,04,5.60
2018,08,31,06,05,7.50
2018,08,31,06,06,8.00
2018,08,31,06,07,5.40
2018,08,31,06,08,5.00
2018,08,31,06,09,4.60
2018,08,31,06,10,4.00
2018,08,31,06,11,4.80
2018,08,31,06,12,7.40
2018,08,31,06,13,5.60
2018,08,31,06,14,7.40
2018,08,31,06,15,6.80
2018,08,31,06,16,5.60
2018,08,31,06,17,8.20
2018,08,31,06,18,3.60
2018,08,31,06,19,7.10
2018,08,31,06,20,9.40
2018,08,31,06,21,7.70
2018,08,31,06,22,7.10
2018,08,31,06,23,3.80
2018,08,31,06,24,1.70
2018,08,31,06,25,3.20
2018,08,31,06,26,3.10
2018,08,31,06,27,1.20
2018,08,31,06,28,3.70
2018,08,31,06,29,8.90
2018,08,31,06,30,7.70
2018,08,31,06,31,8.60
2018,08,31,06,32,8.00
2018,08,31,06,33,3.00
2018,08,31,06,34,1.70
2018,08,31,06,35,5.10
2018,08,31,06,36,7.00
2018,08,31,06,37,1.80
2018,08,31,06,38,3.80
2018,08,31,06,39,0.90
2018,08,31,06,40,3.90
2018,08,31,06,41,4.90
2018,08,31,06,42,6.40
2018,08,31,06,43,5.10
2018,08,31,06,44,5.60
2018,08,31,06,45,7.10
2018,08,31,06,46,9.10
2018,08,31,06,47,5.10
2018,08,31,06,48,3.50
2018,08,31,06,49,7.60
2018,08,31,06,50,5.20
2018,08,31,06,51,8.00
2018,08,31,06,52,8.40
2018,08,31,06,53,5.70
2018,08,31,06,54,5.20
2018,08,31,06,55,7.80
2018,08,31,06,56,7.30
2018,08,31,06,57,6.20
2018,08,31,06,58,5.60
2018,08,31,06,59,5.70
2018,08,31,07,00,6.50
2018,08,31,07,01,8.10
2018,08,31,07,02,5.30
2018,08,31,07,03,6.90
2018,08,31,07,04,6.80
2018,08,31,07,05,12.30
2018,08,31,07,06,5.80
2018,08,31,07,07,8.20
2018,08,31,07,08,3.00
2018,08,31,07,09,8.10
2018,08,31,07,10,10.00
2018,08,31,07,11,7.10
2018,08,31,07,12,7.10
2018,08,31,07,13,6.80
2018,08,31,07,14,7.50
2018,08,31,07,15,9.20
2018,08,31,07,16,6.80
2018,08,31,07,17,8.70
2018,08,31,07,18,5.50
2018,08,31,07,19,8.00
2018,08,31,07,20,7.40
2018,08,31,07,21,6.10
2018,08,31,07,22,8.90
2018,08,31,07,23,8.30
2018,08,31,07,24,9.60
2018,08,31,07,25,8.20
2018,08,31,07,26,6.70
2018,08,31,07,27,8.80
2018,08,31,07,28,8.50
2018,08,31,07,29,8.10
2018,08,31,07,30,9.90
2018,08,31,07,31,9.40
2018,08,31,07,32,10.60
2018,08,31,07,33,9.90
2018,08,31,07,34,5.80
2018,08,31,07,35,6.80
2018,08,31,07,36,9.90
2018,08,31,07,37,12.70
2018,08,31,07,38,7.70
2018,08,31,07,39,8.70
2018,08,31,07,40,11.90
2018,08,31,07,41,9.60
2018,08,31,07,42,10.90
2018,08,31,07,43,7.40
2018,08,31,07,44,9.10
2018,08,31,07,45,6.70
2018,08,31,07,46,6.10
2018,08,31,07,47,7.20
2018,08,31,07,48,9.40
2018,08,31,07,49,10.50
2018,08,31,07,50,12.50
2018,08,31,07,51,3.80
2018,08,31,07,52,9.90
2018,08,31,07,53,9.00
2018,08,31,07,54,9.70
2018,08,31,07,55,8.00
2018,08,31,07,56,8.60
2018,08,31,07,57,8.80
2018,08,31,07,58,5.80
2018,08,31,07,59,6.10
2018,08,31,08,00,7.60
2018,08,31,08,01,13.30
2018,08,31,08,02,9.60
2018,08,31,08,03,11.40
2018,08,31,08,04,6.30
2018,08,31,08,05,8.50
2018,08,31,08,06,8.90
2018,08,31,08,07,10.70
2018,08,31,08,08,11.40
2018,08,31,08,09,9.90
2018,08,31,08,10,10.10
2018,08,31,08,11,7.20
2018,08,31,08,12,6.30
2018,08,31,08,13,7.30
2018,08,31,08,14,9.70
2018,08,31,08,15,5.20
2018,08,31,08,16,1.70
2018,08,31,08,17,6.70
2018,08,31,08,18,5.50
2018,08,31,08,19,5.60
2018,08,31,08,20,6.00
2018,08,31,08,21,6.90
2018,08,31,08,22,4.70
2018,08,31,08,23,6.80
2018,08,31,08,24,11.30
2018,08,31,08,25,10.40
2018,08,31,08,26,6.40
2018,08,31,08,27,10.80
2018,08,31,08,28,10.00
2018,08,31,08,29,5.60
2018,08,31,08,30,7.90
2018,08,31,08,31,7.00
2018,08,31,08,32,10.30
2018,08,31,08,33,6.70
2018,08,31,08,34,3.10
2018,08,31,08,35,7.90
2018,08,31,08,36,7.20
2018,08,31,08,37,7.90
2018,08,31,08,38,5.10
2018,08,31,08,39,5.20
2018,08,31,08,40,7.60
2018,08,31,08,41,6.50
2018,08,31,08,42,3.20
2018,08,31,08,43,4.30
2018,08,31,08,44,3.90
2018,08,31,08,45,6.40
2018,08,31,08,46,9.20
2018,08,31,08,47,1.50
2018,08,31,08,48,4.70
2018,08,31,08,49,6.30
2018,08,31,08,50,10.90
2018,08,31,08,51,13.50
2018,08,31,08,52,15.30
2018,08,31,08,53,6.00
2018,08,31,08,54,8.40
2018,08,31,08,55,3.90
2018,08,31,08,56,7.00
2018,08,31,08,57,10.00
2018,08,31,08,58,1.80
2018,08,31,08,59,5.90
2018,08,31,09,00,7.20
2018,08,31,09,01,3.10
2018,08,31,09,02,10.60
2018,08,31,09,03,5.90
2018,08,31,09,04,7.30
2018,08,31,09,05,4.70
2018,08,31,09,06,3.50
2018,08,31,09,07,8.60
2018,08,31,09,08,4.40
2018,08,31,09,09,10.20
2018,08,31,09,10,13.00
2018,08,31,09,11,5.30
2018,08,31,09,12,5.80
2018,08,31,09,13,2.30
2018,08,31,09,14,7.60
2018,08,31,09,15,4.80
2018,08,31,09,16,4.20
2018,08,31,09,17,1.40
2018,08,31,09,18,5.40
2018,08,31,09,19,8.90
2018,08,31,09,20,4.70
2018,08,31,09,21,3.70
2018,08,31,09,22,7.40
2018,08,31,09,23,5.60
2018,08,31,09,24,7.80
2018,08,31,09,25,7.60
2018,08,31,09,26,5.40
2018,08,31,09,27,6.00
2018,08,31,09,28,10.60
2018,08,31,09,29,8.30
2018,08,31,09,30,2.20
2018,08,31,09,31,4.50
2018,08,31,09,32,8.00
2018,08,31,09,33,5.70
2018,08,31,09,34,7.60
2018,08,31,09,35,5.10
2018,08,31,09,36,6.80
2018,08,31,09,37,6.00
2018,08,31,09,38,4.30
2018,08,31,09,39,5.10
2018,08,31,09,40,4.20
2018,08,31,09,41,4.70
2018,08,31,09,42,5.90
2018,08,31,09,43,6.90
2018,08,31,09,44,4.40
2018,08,31,09,45,4.20
2018,08,31,09,46,3.80
2018,08,31,09,47,5.10
2018,08,31,09,48,2.50
2018,08,31,09,49,2.80
2018,08,31,09,50,8.70
2018,08,31,09,51,7.50
2018,08,31,09,52,3.80
2018,08,31,09,53,4.10
2018,08,31,09,54,4.70
2018,08,31,09,55,3.70
2018,08,31,09,56,5.40
2018,08,31,09,57,2.40
2018,08,31,09,58,6.40
2018,08,31,09,59,3.40
2018,08,31,10,00,1.00
2018,08,31,10,01,4.70
2018,08,31,10,02,5.70
2018,08,31,10,03,7.40
2018,08,31,10,04,11.10
2018,08,31,10,05,8.10
2018,08,31,10,06,8.40
2018,08,31,10,07,11.40
2018,08,31,10,08,8.90
2018,08,31,10,09,11.90
2018,08,31,10,10,8.10
2018,08,31,10,11,3.10
2018,08,31,10,12,6.00
2018,08,31,10,13,8.50
2018,08,31,10,14,12.50
2018,08,31,10,15,11.60
2018,08,31,10,16,11.90
2018,08,31,10,17,13.60
2018,08,31,10,18,9.70
2018,08,31,10,19,10.40
2018,08,31,10,20,9.10
2018,08,31,10,21,12.60
2018,08,31,10,22,10.90
2018,08,31,10,23,6.40
2018,08,31,10,24,5.20
2018,08,31,10,25,8.70
2018,08,31,10,26,12.40
2018,08,31,10,27,17.90
2018,08,31,10,28,14.40
2018,08,31,10,29,9.70
2018,08,31,10,30,4.70
2018,08,31,10,31,12.10
2018,08,31,10,32,16.70
2018,08,31,10,33,13.60
2018,08,31,10,34,10.70
2018,08,31,10,35,15.30
2018,08,31,10,36,13.00
2018,08,31,10,37,10.70
2018,08,31,10,38,14.50
2018,08,31,10,39,11.80
2018,08,31,10,40,17.40
2018,08,31,10,41,10.30
2018,08,31,10,42,14.30
2018,08,31,10,43,13.20
2018,08,31,10,44,13.80
2018,08,31,10,45,7.30
2018,08,31,10,46,7.00
2018,08,31,10,47,11.00
2018,08,31,10,48,17.50
2018,08,31,10,49,12.70
2018,08,31,10,50,11.00
2018,08,31,10,51,12.90
2018,08,31,10,52,16.90
2018,08,31,10,53,14.50
2018,08,31,10,54,9.50
2018,08,31,10,55,8.40
2018,08,31,10,56,15.90
2018,08,31,10,57,19.30
2018,08,31,10,58,11.50
2018,08,31,10,59,8.30
2018,08,31,11,00,13.90
2018,08,31,11,01,11.40
2018,08,31,11,02,15.00
2018,08,31,11,03,10.80
2018,08,31,11,04,8.00
2018,08,31,11,05,9.30
2018,08,31,11,06,12.90
2018,08,31,11,07,15.50
2018,08,31,11,08,19.20
2018,08,31,11,09,12.80
2018,08,31,11,10,10.50
2018,08,31,11,11,6.00
2018,08,31,11,12,13.90
2018,08,31,11,13,22.50
2018,08,31,11,14,17.10
2018,08,31,11,15,17.90
2018,08,31,11,16,14.10
2018,08,31,11,17,12.90
2018,08,31,11,18,13.10
2018,08,31,11,19,17.30
2018,08,31,11,20,12.00
2018,08,31,11,21,11.60
2018,08,31,11,22,17.70
2018,08,31,11,23,16.70
2018,08,31,11,24,20.00
2018,08,31,11,25,14.90
2018,08,31,11,26,15.70
2018,08,31,11,27,18.30
2018,08,31,11,28,15.00
2018,08,31,11,29,13.70
2018,08,31,11,30,17.80
2018,08,31,11,31,16.40
2018,08,31,11,32,17.70
2018,08,31,11,33,11.70
2018,08,31,11,34,15.60
2018,08,31,11,35,13.80
2018,08,31,11,36,12.00
2018,08,31,11,37,14.20
2018,08,31,11,38,10.60
2018,08,31,11,39,6.50
2018,08,31,11,40,7.60
2018,08,31,11,41,4.70
2018,08,31,11,42,12.30
2018,08,31,11,43,13.30
2018,08,31,11,44,14.80
2018,08,31,11,45,16.70
2018,08,31,11,46,13.30
2018,08,31,11,47,15.10
2018,08,31,11,48,13.90
2018,08,31,11,49,11.30
2018,08,31,11,50,14.60
2018,08,31,11,51,9.20
2018,08,31,11,52,17.00
2018,08,31,11,53,15.60
2018,08,31,11,54,16.00
2018,08,31,11,55,13.90
2018,08,31,11,56,16.30
2018,08,31,11,57,16.30
2018,08,31,11,58,7.80
2018,08,31,11,59,12.90
2018,08,31,12,00,8.80
2018,08,31,12,01,11.80
2018,08,31,12,02,13.90
2018,08,31,12,03,10.90
2018,08,31,12,04,16.30
2018,08,31,12,05,14.60
2018,08,31,12,06,11.90
2018,08,31,12,07,17.50
2018,08,31,12,08,15.10
2018,08,31,12,09,16.40
2018,08,31,12,10,19.80
2018,08,31,12,11,16.70
2018,08,31,12,12,13.00
2018,08,31,12,13,15.90
2018,08,31,12,14,15.70
2018,08,31,12,15,11.00
2018,08,31,12,16,15.60
2018,08,31,12,17,20.00
2018,08,31,12,18,17.60
2018,08,31,12,19,12.60
2018,08,31,12,20,16.90
2018,08,31,12,21,13.00
2018,08,31,12,22,15.30
2018,08,31,12,23,21.30
2018,08,31,12,24,12.20
2018,08,31,12,25,16.30
2018,08,31,12,26,18.80
2018,08,31,12,27,12.90
2018,08,31,12,28,17.00
2018,08,31,12,29,16.50
2018,08,31,12,30,15.70
2018,08,31,12,31,19.50
2018,08,31,12,32,19.20
2018,08,31,12,33,15.70
2018,08,31,12,34,17.50
2018,08,31,12,35,19.80
2018,08,31,12,36,18.90
2018,08,31,12,37,20.00
2018,08,31,12,38,13.20
2018,08,31,12,39,13.50
2018,08,31,12,40,11.70
2018,08,31,12,41,7.90
2018,08,31,12,42,13.80
2018,08,31,12,43,11.30
2018,08,31,12,44,11.40
2018,08,31,12,45,13.90
2018,08,31,12,46,15.90
2018,08,31,12,47,15.90
2018,08,31,12,48,19.50
2018,08,31,12,49,13.40
2018,08,31,12,50,16.40
2018,08,31,12,51,15.10
2018,08,31,12,52,14.00
2018,08,31,12,53,9.90
2018,08,31,12,54,12.70
2018,08,31,12,55,13.40
2018,08,31,12,56,14.60
2018,08,31,12,57,14.10
2018,08,31,12,58,10.70
2018,08,31,12,59,13.60
2018,08,31,13,00,9.40
2018,08,31,13,01,12.20
2018,08,31,13,02,11.40
2018,08,31,13,03,20.70
2018,08,31,13,04,13.60
2018,08,31,13,05,13.00
2018,08,31,13,06,9.80
2018,08,31,13,07,16.70
2018,08,31,13,08,9.60
2018,08,31,13,09,18.30
2018,08,31,13,10,19.50
2018,08,31,13,11,13.90
2018,08,31,13,12,10.70
2018,08,31,13,13,10.80
2018,08,31,13,14,17.00
2018,08,31,13,15,15.00
2018,08,31,13,16,18.20
2018,08,31,13,17,21.80
2018,08,31,13,18,15.40
2018,08,31,13,19,23.30
2018,08,31,13,20,21.80
2018,08,31,13,21,21.60
2018,08,31,13,22,12.50
2018,08,31,13,23,19.50
2018,08,31,13,24,17.10
2018,08,31,13,25,16.80
2018,08,31,13,26,15.80
2018,08,31,13,27,14.00
2018,08,31,13,28,10.50
2018,08,31,13,29,15.80
2018,08,31,13,30,16.80
2018,08,31,13,31,22.00
2018,08,31,13,32,13.80
2018,08,31,13,33,22.70
2018,08,31,13,34,15.00
2018,08,31,13,35,17.70
2018,08,31,13,36,15.30
2018,08,31,13,37,14.80
2018,08,31,13,38,15.20
2018,08,31,13,39,17.40
2018,08,31,13,40,23.40
2018,08,31,13,41,20.90
2018,08,31,13,42,15.80
2018,08,31,13,43,21.00
2018,08,31,13,44,18.30
2018,08,31,13,45,20.20
2018,08,31,13,46,19.00
2018,08,31,13,47,18.60
2018,08,31,13,48,13.60
2018,08,31,13,49,15.70
2018,08,31,13,50,20.50
2018,08,31,13,51,13.00
2018,08,31,13,52,19.40
2018,08,31,13,53,15.90
2018,08,31,13,54,16.90
2018,08,31,13,55,20.60
2018,08,31,13,56,24.60
2018,08,31,13,57,18.90
2018,08,31,13,58,24.50
2018,08,31,13,59,11.90
2018,08,31,14,00,13.00
2018,08,31,14,01,23.30
2018,08,31,14,02,15.70
2018,08,31,14,03,13.60
2018,08,31,14,04,19.80
2018,08,31,14,05,21.10
2018,08,31,14,06,21.50
2018,08,31,14,07,14.80
2018,08,31,14,08,22.00
2018,08,31,14,09,13.70
2018,08,31,14,10,14.70
2018,08,31,14,11,20.20
2018,08,31,14,12,16.20
2018,08,31,14,13,12.00
2018,08,31,14,14,17.40
2018,08,31,14,15,11.90
2018,08,31,14,16,15.50
2018,08,31,14,17,10.70
2018,08,31,14,18,16.20
2018,08,31,14,19,13.80
2018,08,31,14,20,18.50
2018,08,31,14,21,16.30
2018,08,31,14,22,13.10
2018,08,31,14,23,19.80
2018,08,31,14,24,12.90
2018,08,31,14,25,10.70
2018,08,31,14,26,12.20
2018,08,31,14,27,13.70
2018,08,31,14,28,18.10
2018,08,31,14,29,14.70
2018,08,31,14,30,15.00
2018,08,31,14,31,18.40
2018,08,31,14,32,17.60
2018,08,31,14,33,11.00
2018,08,31,14,34,13.30
2018,08,31,14,35,12.20
2018,08,31,14,36,16.00
2018,08,31,14,37,9.30
2018,08,31,14,38,7.60
2018,08,31,14,39,19.80
2018,08,31,14,40,7.60
2018,08,31,14,41,10.70
2018,08,31,14,42,21.00
2018,08,31,14,43,21.60
2018,08,31,14,44,10.90
2018,08,31,14,45,12.70
2018,08,31,14,46,14.60
2018,08,31,14,47,15.60
2018,08,31,14,48,12.20
2018,08,31,14,49,10.40
2018,08,31,14,50,12.70
2018,08,31,14,51,16.50
2018,08,31,14,52,7.80
2018,08,31,14,53,19.10
2018,08,31,14,54,19.10
2018,08,31,14,55,19.30
2018,08,31,14,56,18.30
2018,08,31,14,57,18.30
2018,08,31,14,58,13.10
2018,08,31,14,59,11.20
2018,08,31,15,00,21.90
2018,08,31,15,01,16.00
2018,08,31,15,02,18.00
2018,08,31,15,03,20.10
2018,08,31,15,04,21.20
2018,08,31,15,05,15.60
2018,08,31,15,06,21.50
2018,08,31,15,07,16.60
2018,08,31,15,08,18.50
2018,08,31,15,09,14.80
2018,08,31,15,10,16.50
2018,08,31,15,11,12.50
2018,08,31,15,12,20.80
2018,08,31,15,13,16.50
2018,08,31,15,14,20.80
2018,08,31,15,15,20.40
2018,08,31,15,16,11.50
2018,08,31,15,17,10.90
2018,08,31,15,18,18.20
2018,08,31,15,19,20.40
2018,08,31,15,20,8.00
2018,08,31,15,21,13.90
2018,08,31,15,22,11.40
2018,08,31,15,23,16.80
2018,08,31,15,24,15.30
2018,08,31,15,25,16.50
2018,08,31,15,26,10.40
2018,08,31,15,27,12.90
2018,08,31,15,28,7.30
2018,08,31,15,29,12.70
2018,08,31,15,30,12.40
2018,08,31,15,31,6.00
2018,08,31,15,32,7.30
2018,08,31,15,33,16.30
2018,08,31,15,34,18.40
2018,08,31,15,35,19.50
2018,08,31,15,36,17.70
2018,08,31,15,37,15.10
2018,08,31,15,38,18.40
2018,08,31,15,39,17.90
2018,08,31,15,40,19.80
2018,08,31,15,41,14.80
2018,08,31,15,42,17.50
2018,08,31,15,43,14.90
2018,08,31,15,44,15.70
2018,08,31,15,45,15.60
2018,08,31,15,46,6.90
2018,08,31,15,47,10.10
2018,08,31,15,48,17.10
2018,08,31,15,49,15.70
2018,08,31,15,50,18.30
2018,08,31,15,51,28.00
2018,08,31,15,52,22.50
2018,08,31,15,53,14.40
2018,08,31,15,54,12.90
2018,08,31,15,55,19.70
2018,08,31,15,56,12.60
2018,08,31,15,57,7.80
2018,08,31,15,58,7.00
2018,08,31,15,59,7.70
2018,08,31,16,00,10.00
2018,08,31,16,01,10.10
2018,08,31,16,02,11.80
2018,08,31,16,03,11.40
2018,08,31,16,04,18.70
2018,08,31,16,05,14.60
2018,08,31,16,06,19.60
2018,08,31,16,07,16.20
2018,08,31,16,08,15.30
2018,08,31,16,09,12.50
2018,08,31,16,10,20.00
2018,08,31,16,11,12.00
2018,08,31,16,12,23.70
2018,08,31,16,13,10.50
2018,08,31,16,14,12.00
2018,08,31,16,15,9.10
2018,08,31,16,16,10.10
2018,08,31,16,17,20.30
2018,08,31,16,18,13.30
2018,08,31,16,19,24.40
2018,08,31,16,20,18.30
2018,08,31,16,21,15.00
2018,08,31,16,22,13.00
2018,08,31,16,23,10.40
2018,08,31,16,24,15.20
2018,08,31,16,25,13.90
2018,08,31,16,26,9.50
2018,08,31,16,27,12.50
2018,08,31,16,28,14.60
2018,08,31,16,29,12.60
2018,08,31,16,30,15.40
2018,08,31,16,31,20.00
2018,08,31,16,32,18.70
2018,08,31,16,33,10.10
2018,08,31,16,34,6.40
2018,08,31,16,35,12.10
2018,08,31,16,36,10.10
2018,08,31,16,37,9.30
2018,08,31,16,38,12.60
2018,08,31,16,39,19.70
2018,08,31,16,40,17.30
2018,08,31,16,41,16.70
2018,08,31,16,42,21.10
2018,08,31,16,43,16.20
2018,08,31,16,44,15.70
2018,08,31,16,45,16.20
2018,08,31,16,46,16.40
2018,08,31,16,47,26.20
2018,08,31,16,48,18.30
2018,08,31,16,49,23.10
2018,08,31,16,50,17.10
2018,08,31,16,51,23.80
2018,08,31,16,52,20.30
2018,08,31,16,53,15.90
2018,08,31,16,54,30.70
2018,08,31,16,55,22.20
2018,08,31,16,56,12.40
2018,08,31,16,57,9.40
2018,08,31,16,58,12.90
2018,08,31,16,59,14.20
2018,08,31,17,00,7.40
2018,08,31,17,01,7.80
2018,08,31,17,02,10.90
2018,08,31,17,03,15.40
2018,08,31,17,04,12.20
2018,08,31,17,05,12.80
2018,08,31,17,06,13.30
2018,08,31,17,07,11.90
2018,08,31,17,08,13.20
2018,08,31,17,09,14.10
2018,08,31,17,10,22.70
2018,08,31,17,11,12.20
2018,08,31,17,12,9.10
2018,08,31,17,13,13.40
2018,08,31,17,14,15.30
2018,08,31,17,15,16.00
2018,08,31,17,16,14.20
2018,08,31,17,17,19.80
2018,08,31,17,18,14.00
2018,08,31,17,19,17.80
2018,08,31,17,20,17.90
2018,08,31,17,21,10.70
2018,08,31,17,22,28.60
2018,08,31,17,23,20.00
2018,08,31,17,24,12.80
2018,08,31,17,25,10.10
2018,08,31,17,26,11.00
2018,08,31,17,27,10.00
2018,08,31,17,28,15.90
2018,08,31,17,29,6.30
2018,08,31,17,30,10.30
2018,08,31,17,31,8.90
2018,08,31,17,32,11.00
2018,08,31,17,33,14.60
2018,08,31,17,34,20.10
2018,08,31,17,35,18.10
2018,08,31,17,36,12.80
2018,08,31,17,37,22.40
2018,08,31,17,38,19.50
2018,08,31,17,39,11.80
2018,08,31,17,40,20.10
2018,08,31,17,41,19.20
2018,08,31,17,42,21.70
2018,08,31,17,43,25.30
2018,08,31,17,44,15.10
2018,08,31,17,45,21.40